Location: Newark
(7.0858°N, 171.3717°E)
Time: 06:28:03
(UTC+00:00)

Courier 1B - Pass Details

Date: 05 December 2020
Orbit: 962 x 1209 km, 28.3° (Epoch: 19 January)

Event Time Altitude Azimuth Distance (km) Brightness Sun altitude
Rises 06:25:14 0° 263° (W) 3,681 12.5 -2.7°
Reaches altitude 10° 06:28:11 10° 272° (W) 2,710 11.2 -3.4°
Maximum altitude 06:34:00 34° 335° (NNW) 1,521 8.6 -4.7°
Drops below altitude 10° 06:39:47 10° 39° (NE) 2,686 9.3 -6.0°
Enters shadow 06:41:19 - 45° (NE) 3,185 9.6 -6.4°
Sets 06:42:42 0° 48° (NE) 3,645 - -6.7°
